Starlink 32533

operational
NORAD ID: 61706 Int'l Des: 2024-195 Owner: SPXS Country: US Constellation: starlink
LEOCIRCULAR

About Starlink 32533

Description loading...

Live Position

Loading 3D Globe...

Upcoming Passes

Altitude History

Altitude vs Time

uPlot chart will show altitude changes over time

Two-Line Element Set

1 61706U 24195V 25303.62658201 .00001192 00000-0 52353-4 0 9999
2 61706 53.1603 39.1007 0001104 72.4851 287.6270 15.30199311 57279
Epoch: Oct 30, 2025 • Age: 15 hours

Current Status

Altitude 484.3 km
Velocity 7.62 km/s
Sub-Earth Point -28.37°S, 108.81°E
Launch Date Oct 30, 2024
Age 0.9 years
Type internet

Technical Details

Classification Payload
Mass 730.00 kg
Dry Mass 700.00 kg
Total Mass 730.00 kg
Length 0.30 m
Diameter 4.10 m
Span 29.00 m
Shape Box + pan
Manufacturer SPXS
Bus Type Starlink V2M
Phase Status In Orbit
Owner/State SPXS/US

Large Constellations

Loading constellations...